Tracking 27079 objects as of 24-Mar-2023
HD Live streaming from Space Station
objects crossing your sky now

STARLINK-1736

Track STARLINK-1736 now!
10-day predictions
STARLINK-1736 is classified as:


NORAD ID: 46585
Int'l Code: 2020-070BF
Perigee: 553.8 km
Apogee: 554.8 km
Inclination: 53.1 °
Period: 95.6 minutes
Semi major axis: 6925 km
RCS: Unknown
Launch date: October 6, 2020
Source: United States (US)
Launch site: AIR FORCE EASTERN TEST RANGE (AFETR)
Your satellite tracking list
Your tracking list is empty




NASA's NSSDC Master Catalog

Two Line Element Set (TLE):
1 46585U 20070BF  23082.83937862  .00037903  00000-0  25490-2 0  9992
2 46585  53.0536 333.2271 0000688  82.0686 278.0381 15.06412051136425
Source of the keplerian elements: AFSPC